Location: Melara
(45.0500°N, 11.1833°E)
Time: 23:59:07
(UTC+00:00)

Cosmos 2251 Rocket - Pass Details

Date: 26 May 2022
Orbit: 764 x 791 km, 74.0° (Epoch: 02 July)

Event Time Altitude Azimuth Distance (km) Brightness Sun altitude
Rises 01:57:45 0° 338° (NNW) 3,248 7.2 -13.9°
Reaches altitude 10° 02:00:08 10° 338° (NNW) 2,320 6.4 -13.6°
Maximum altitude 02:05:25 88° 252° (WSW) 780 3.5 -13.0°
Drops below altitude 10° 02:10:42 10° 162° (SSE) 2,320 5.7 -12.4°
Sets 02:13:04 0° 162° (SSE) 3,248 6.5 -12.1°
